Yankton, SD

9:00 PM CST on December 08, 2019 (GMT -0600)
Gurney Municipal

Weather History for KYKN - October, 2019

Change the Weather History Date:

Sunday, October 13, 2019

  Actual Average Record
Temperature  
Mean Temperature 42 °F -  
Max Temperature 50 °F 64 °F 89 °F (1956)
Min Temperature 30 °F 38 °F 21 °F (1979)
Degree Days  
Heating Degree Days 23    
Moisture  
Dew Point 31 °F    
Average Humidity 70    
Maximum Humidity 96    
Minimum Humidity 54    
Precipitation  
Precipitation 0.00 in - - ()
Sea Level Pressure  
Sea Level Pressure 29.98 in    
Wind  
Wind Speed 12 mph (WNW)    
Max Wind Speed 25 mph    
Max Gust Speed 30 mph    
Visibility 10 miles    
Events      
Averages and records for this station are not official NWS values.
T = Trace of Precipitation, MM = Missing Value Source: NWS Daily Summary

Daily Weather History Graph

Daily Weather History Graph

Search for Another Location

Airport or City:

Astronomy

Oct. 13, 2019 Rise Set
Actual Time 7:40 AM CDT 6:50 PM CDT
Civil Twilight 7:11 AM CDT 7:18 PM CDT
Nautical Twilight 6:39 AM CDT 7:51 PM CDT
Astronomical Twilight 6:06 AM CDT 8:24 PM CDT
Moon 7:14 PM CDT (10/13) 7:13 AM CDT (10/13)
Length of Visible Light 12h 07m
Length of Day
11h 10m
Full, 100% of the Moon is Illuminated
Oct 13
Full
Oct 13
Full
Oct 21
Last Quarter
Oct 27
New
Nov 4
First Quarter

Hourly Weather History & Observations

Time (CDT) Temp. Windchill Dew Point Humidity Pressure Visibility Wind Dir Wind Speed Gust Speed Precip Events Conditions
12:31 AM 37.4 °F 28.5 °F 30.2 °F 75% 29.84 in 10.0 mi North 15.0 mph - N/A   Overcast
12:56 AM 36.0 °F 27.5 °F 30.9 °F 82% 29.91 in 10.0 mi NNW 12.7 mph - N/A   Overcast
1:56 AM 36.0 °F 30.3 °F 30.9 °F 82% 29.91 in 10.0 mi WNW 6.9 mph - N/A   Overcast
2:56 AM 37.0 °F 31.0 °F 30.9 °F 79% 29.91 in 10.0 mi WSW 8.1 mph - N/A   Overcast
3:56 AM 37.9 °F 32.1 °F 30.0 °F 73% 29.91 in 10.0 mi West 8.1 mph - N/A   Overcast
4:56 AM 39.0 °F 32.3 °F 30.0 °F 70% 29.91 in 10.0 mi West 10.4 mph - N/A   Overcast
5:56 AM 37.9 °F 29.6 °F 30.0 °F 73% 29.93 in 10.0 mi West 13.8 mph - N/A   Overcast
6:56 AM 37.9 °F 30.0 °F 28.9 °F 70% 29.94 in 10.0 mi West 12.7 mph - N/A   Overcast
7:56 AM 37.9 °F 30.9 °F 30.0 °F 73% 29.94 in 10.0 mi WSW 10.4 mph - N/A   Overcast
8:56 AM 37.9 °F 29.6 °F 28.9 °F 70% 29.95 in 10.0 mi WSW 13.8 mph - N/A   Mostly Cloudy
9:56 AM 39.0 °F 29.6 °F 28.9 °F 67% 29.97 in 10.0 mi West 18.4 mph - N/A   Overcast
10:56 AM 44.1 °F 35.0 °F 30.0 °F 58% 29.98 in 10.0 mi WNW 24.2 mph 28.8 mph N/A   Partly Cloudy
11:56 AM 46.0 °F 37.4 °F 30.9 °F 56% 29.98 in 10.0 mi NW 25.3 mph 29.9 mph N/A   Mostly Cloudy
12:56 PM 46.9 °F - 32.0 °F 56% 30.00 in 10.0 mi WNW 20.7 mph 25.3 mph N/A   Mostly Cloudy
1:56 PM 48.0 °F - 33.1 °F 56% 30.00 in 10.0 mi WNW 17.3 mph 26.5 mph N/A   Overcast
2:56 PM 48.0 °F - 33.1 °F 56% 29.99 in 10.0 mi West 17.3 mph 25.3 mph N/A   Scattered Clouds
3:56 PM 48.9 °F - 33.1 °F 54% 29.99 in 10.0 mi West 17.3 mph 28.8 mph N/A   Mostly Cloudy
4:56 PM 48.9 °F - 33.1 °F 54% 29.99 in 10.0 mi WNW 17.3 mph - N/A   Partly Cloudy
5:56 PM 48.0 °F - 34.0 °F 58% 30.01 in 10.0 mi NW 11.5 mph - N/A   Overcast
6:56 PM 44.1 °F 41.5 °F 34.0 °F 68% 30.02 in 10.0 mi NNW 4.6 mph - N/A   Clear
7:56 PM 41.0 °F 37.1 °F 34.0 °F 76% 30.04 in 10.0 mi North 5.8 mph - N/A   Clear
8:56 PM 37.0 °F 30.4 °F 32.0 °F 82% 30.05 in 10.0 mi North 9.2 mph - N/A   Clear
9:56 PM 37.0 °F - 32.0 °F 82% 30.07 in 10.0 mi Calm Calm - N/A   Clear
10:56 PM 36.0 °F - 32.0 °F 86% 30.08 in 10.0 mi Calm Calm - N/A   Clear
11:56 PM 30.9 °F - 30.0 °F 96% 30.08 in 10.0 mi Calm Calm - N/A   Clear